Wind_Speed
54 56 57 59 61 61 62 62 61 62 62 62 61 61 59 64 61 62 62 62 61 60 60 60 58 62 63 60 62 59 53 54 58
60 62 63 64 64 66 67 68 67 67 67 67 66 65 66 66 65 66 67 68 69 67 68 66 69 68 67 64 62 57 56 58 63
64 65 68 70 71 73 73 72 73 74 73 72 71 72 72 71 71 70 71 72 72 73 73 72 74 73 70 67 63 65 64 62 65
70 71 72 73 75 76 77 79 79 78 76 75 74 75 76 75 73 73 72 74 75 74 75 74 75 76 73 66 66 67 67 65 69
73 76 78 79 79 81 81 82 82 82 81 81 78 78 78 79 80 79 75 76 77 74 73 68 70 73 73 71 66 67 69 71 72
77 78 80 81 83 83 85 86 86 85 85 82 84 85 86 85 85 83 78 72 70 67 67 71 73 73 69 68 67 71 74 76 70
79 81 82 84 85 84 84 84 85 86 86 88 88 85 87 85 85 85 84 80 79 84 85 85 78 76 69 69 73 79 77 68 67
87 86 83 84 85 83 81 82 81 82 81 80 81 82 84 84 84 85 84 87 88 88 89 84 83 82 85 84 83 75 72 72 64
85 84 80 79 77 76 75 75 75 76 77 76 76 75 75 73 73 74 75 75 77 80 80 82 81 78 78 82 77 76 74 69 66
81 79 74 73 71 70 70 71 72 72 72 71 70 70 69 68 67 66 65 65 66 67 69 70 69 70 69 68 68 66 59 57 54
71 70 70 70 69 67 68 69 70 71 71 72 70 71 70 69 68 65 63 61 61 62 63 64 64 63 61 58 56 54 52 51 52
67 67 68 68 67 67 68 68 69 70 71 73 73 73 73 72 71 68 65 63 62 62 62 60 59 57 57 57 57 55 55 54 53
66 67 67 66 67 68 68 68 67 69 71 71 72 72 75 75 74 71 68 66 64 63 63 62 62 60 59 60 59 58 56 56 57
62 64 65 66 66 67 68 69 69 67 68 70 72 71 73 75 75 74 72 71 69 67 66 64 62 61 60 61 59 58 57 58 59
54 57 59 62 63 65 65 67 69 68 68 68 69 71 71 72 74 76 75 74 73 72 70 68 66 63 63 62 61 59 58 59 60
56 57 54 55 57 59 64 66 67 68 70 69 68 70 71 72 73 75 74 74 75 75 74 73 71 69 68 66 64 63 61 62 62
55 52 54 55 54 57 60 63 66 67 66 68 70 70 69 71 73 74 75 75 76 77 78 77 75 74 73 72 71 69 69 67 65
62 59 55 56 57 60 61 61 61 61 64 66 68 69 70 71 71 72 73 75 76 78 79 79 77 76 76 77 77 75 74 71 70
60 62 58 58 60 60 62 62 61 59 59 62 65 67 68 69 71 72 74 75 76 78 79 80 81 81 81 81 80 80 79 77 75
68 68 64 64 65 64 65 61 60 58 55 58 63 66 68 70 70 72 74 77 78 79 82 82 84 85 85 86 86 86 85 84 82
Wind_Direction
277 278 278 277 276 276 276 276 275 276 276 276 275 278 278 280 283 285 287 287 286 285 283 284 285 289 293 295 293 291 291 290 295
282 284 282 281 279 277 278 279 276 275 275 276 277 279 278 280 281 281 281 283 285 286 285 285 286 286 290 294 291 287 288 296 299
280 281 281 282 281 281 280 277 277 279 278 278 279 280 281 281 280 279 279 277 279 280 283 284 286 286 290 291 286 285 288 296 299
281 281 281 280 278 278 278 279 279 278 278 278 278 277 278 280 281 281 282 282 281 283 284 283 286 286 288 287 285 284 290 296 298
277 279 280 281 280 279 277 277 277 278 276 277 278 278 279 279 279 281 280 281 280 283 277 282 285 285 285 282 281 287 290 295 296
279 279 279 279 278 276 277 276 276 276 276 276 276 278 278 278 281 281 283 280 280 279 282 283 287 288 282 279 282 290 293 294 294
279 279 278 278 278 276 275 275 275 274 275 275 276 276 276 278 279 279 282 277 278 280 282 285 284 284 280 277 283 293 291 291 289
279 280 276 276 278 276 274 274 274 274 274 275 276 276 277 278 277 277 277 274 278 276 279 281 280 279 280 285 287 287 289 289 286
276 276 276 275 274 273 273 273 273 273 275 276 277 278 278 278 278 278 277 279 279 278 279 280 283 283 282 282 283 287 284 286 283
273 274 273 271 271 272 273 273 273 274 275 275 276 277 278 279 281 281 280 281 281 282 281 282 282 282 282 282 284 282 282 281 281
271 271 271 271 271 271 272 273 274 275 275 276 276 276 277 279 281 282 282 282 282 282 282 282 283 284 284 283 282 283 282 281 279
270 271 271 272 272 272 271 272 274 274 275 275 275 275 276 278 279 280 281 281 281 281 282 283 284 285 286 284 284 282 281 278 277
271 271 272 273 274 274 272 271 271 272 273 274 275 275 276 276 277 278 279 279 280 280 280 281 282 282 282 283 283 283 281 279 276
271 272 272 272 273 273 273 272 272 272 273 274 274 275 275 274 275 276 275 276 277 278 279 279 280 281 280 281 282 283 282 280 276
273 274 274 274 272 271 271 272 272 272 272 272 273 274 275 275 274 274 274 274 275 276 276 278 277 279 279 279 279 280 281 279 277
278 279 280 278 277 277 275 272 271 272 272 272 273 273 274 275 274 273 274 273 273 274 275 275 276 276 276 276 277 277 279 279 277
278 279 279 283 283 281 279 277 276 275 275 274 274 274 274 274 274 274 273 273 273 273 274 274 273 274 274 274 276 276 276 276 276
279 281 281 283 286 285 286 283 282 278 276 275 276 276 275 274 274 274 274 274 273 272 273 274 273 274 275 275 274 275 275 275 274
277 279 280 282 285 289 291 291 288 284 279 277 275 275 276 276 276 275 274 274 273 273 272 272 273 274 274 274 274 274 275 276 276
271 274 276 280 284 287 292 293 292 285 284 282 277 276 275 274 274 273 274 274 274 273 273 272 273 274 273 274 274 275 274 274 274
Height
10879 10878 10876 10875 10874 10873 10872 10871 10871 10870 10869 10868 10867 10865 10863 10861 10861 10859 10858 10857 10855 10854 10851 10849 10847 10844 10841 10838 10835 10832 10829 10826 10822
10868 10867 10866 10865 10863 10862 10861 10860 10860 10859 10858 10857 10856 10854 10851 10851 10850 10849 10847 10845 10843 10842 10840 10838 10835 10833 10830 10828 10825 10821 10819 10816 10812
10858 10856 10855 10853 10852 10850 10849 10849 10847 10846 10846 10845 10845 10842 10839 10839 10838 10839 10836 10834 10832 10830 10828 10826 10823 10820 10819 10817 10814 10811 10807 10804 10801
10845 10845 10843 10842 10840 10839 10837 10835 10834 10834 10833 10832 10833 10829 10827 10826 10825 10826 10824 10821 10818 10818 10816 10813 10810 10808 10806 10805 10802 10798 10795 10793 10791
10833 10831 10830 10827 10826 10825 10824 10822 10822 10821 10819 10819 10819 10815 10812 10812 10812 10812 10812 10808 10805 10805 10802 10799 10795 10792 10794 10792 10789 10785 10782 10780 10779
10820 10818 10815 10813 10810 10810 10809 10807 10806 10805 10803 10804 10804 10800 10798 10797 10798 10796 10798 10794 10791 10791 10790 10786 10782 10779 10780 10778 10775 10772 10769 10767 10765
10805 10804 10800 10798 10796 10795 10795 10792 10790 10789 10788 10787 10788 10786 10781 10781 10782 10782 10782 10780 10777 10775 10775 10772 10769 10767 10766 10764 10763 10759 10756 10753 10752
10788 10787 10785 10782 10781 10780 10780 10777 10774 10773 10772 10771 10772 10768 10767 10766 10766 10766 10766 10764 10762 10760 10758 10757 10755 10753 10751 10749 10748 10745 10742 10740 10738
10773 10771 10771 10768 10767 10765 10764 10762 10760 10759 10757 10757 10759 10753 10752 10752 10751 10749 10749 10748 10745 10743 10742 10740 10738 10737 10735 10733 10732 10731 10728 10726 10724
10757 10756 10756 10754 10754 10752 10751 10750 10747 10746 10743 10743 10745 10740 10738 10737 10736 10735 10734 10732 10730 10728 10726 10725 10723 10721 10720 10717 10716 10714 10713 10712 10711
10743 10744 10742 10740 10741 10741 10738 10736 10734 10733 10731 10730 10731 10728 10726 10725 10723 10722 10721 10719 10717 10714 10712 10711 10710 10707 10705 10703 10702 10700 10700 10699 10698
10730 10731 10728 10727 10727 10726 10725 10723 10720 10718 10716 10715 10716 10715 10713 10712 10710 10709 10708 10706 10704 10702 10700 10699 10696 10694 10692 10690 10689 10688 10687 10686 10685
10717 10716 10715 10714 10713 10712 10710 10708 10706 10704 10702 10701 10700 10701 10699 10697 10696 10695 10695 10693 10691 10689 10688 10686 10683 10682 10680 10678 10675 10673 10673 10672 10672
10705 10703 10702 10699 10699 10697 10696 10693 10692 10691 10689 10687 10685 10685 10685 10683 10682 10681 10680 10679 10677 10675 10674 10672 10669 10668 10667 10665 10662 10660 10659 10658 10657
10693 10691 10689 10686 10685 10684 10683 10681 10679 10677 10675 10672 10670 10669 10669 10668 10666 10665 10664 10662 10661 10660 10658 10657 10656 10654 10652 10650 10647 10645 10645 10643 10641
10679 10679 10676 10674 10672 10670 10668 10666 10664 10663 10661 10659 10657 10655 10655 10653 10651 10648 10648 10647 10645 10643 10642 10641 10640 10639 10636 10634 10631 10631 10630 10628 10626
10667 10668 10667 10663 10660 10658 10654 10651 10650 10649 10647 10645 10643 10641 10639 10637 10635 10633 10632 10631 10629 10626 10625 10624 10623 10622 10620 10618 10614 10613 10612 10611 10609
10656 10655 10654 10652 10648 10645 10643 10640 10638 10635 10633 10631 10628 10625 10623 10621 10619 10618 10616 10615 10611 10609 10607 10605 10605 10602 10600 10599 10596 10595 10593 10592 10591
10643 10641 10642 10640 10635 10632 10630 10627 10624 10621 10619 10615 10613 10610 10608 10606 10604 10601 10599 10597 10595 10591 10589 10588 10587 10584 10581 10579 10577 10575 10573 10572 10571
10633 10628 10628 10627 10623 10620 10617 10614 10610 10607 10605 10601 10599 10596 10592 10590 10587 10583 10582 10578 10575 10572 10569 10569 10568 10565 10562 10558 10556 10554 10552 10550 10548